User: anonymous   Login
Location: Hartman Creek State Park
(44.3257°N, 89.2134°W)
Time: 08:34:25
(UTC-05:00)
Language:

Cosmos 2263 Rocket - Orbit

View from above orbital plane
View from above orbital plane
View from above satellite
View from above satellite

Ground track
Ground track

The orbit data is extracted from the following two-line orbital elements,

1 22803U 93059B   16177.53078777  .00000170  00000-0  10856-3 0  9998
2 22803  70.9912 280.9771 0018430 214.8234 145.1685 14.16746772177762
Epoch (UTC): 25 June 2016 12:44:20
Eccentricity: 0.0018430
inclination: 70.9912°
perigee height: 823 km
apogee height: 849 km
right ascension of ascending node: 280.9771°
argument of perigee: 214.8234°
revolutions per day: 14.16746772
mean anomaly at epoch: 145.1685°
orbit number at epoch: 17776

The dashed part of the orbit path shows where the satellite is in the earth's shadow,  

DLR